| time (UTC) | temp C | wind direction | speed KPH | gust KPH | rain 1hr cm | rain 24hr cm | rain mn cm | humidity % | barometer mb |
| 20260505201532 | 12 | 343 | 8.0 | 16.1 | 0.00 | 0.00 | 0.00 | 74 | 1009.5 |
| 20260505201030 | 12 | 86 | 3.2 | 12.9 | 0.00 | 0.00 | 0.00 | 75 | 1009.4 |
| 20260505200528 | 12 | 66 | 6.4 | 24.1 | 0.00 | 0.00 | 0.00 | 75 | 1009.1 |
| 20260505200024 | 12 | 86 | 6.4 | 11.3 | 0.00 | 0.00 | 0.00 | 76 | 1008.9 |
| 20260505195520 | 12 | 293 | 12.9 | 20.9 | 0.00 | 0.00 | 0.00 | 76 | 1009.3 |
| 20260505195018 | 12 | 70 | 1.6 | 17.7 | 0.00 | 0.00 | 0.00 | 77 | 1009.4 |
| 20260505194515 | 12 | 87 | 3.2 | 16.1 | 0.00 | 0.00 | 0.00 | 77 | 1009.5 |
| 20260505194010 | 12 | 14 | 3.2 | 9.7 | 0.00 | 0.00 | 0.00 | 79 | 1009.1 |
| 20260505193508 | 13 | 338 | 1.6 | 3.2 | 0.00 | 0.00 | 0.00 | 79 | 1009.4 |
| 20260505193005 | 12 | 279 | 3.2 | 9.7 | 0.00 | 0.00 | 0.00 | 79 | 1009.3 |
| 20260505192503 | 12 | 2 | 9.7 | 12.9 | 0.00 | 0.00 | 0.00 | 79 | 1009.2 |
| 20260505192000 | 13 | 348 | 6.4 | 11.3 | 0.00 | 0.00 | 0.00 | 79 | 1008.9 |
| 20260505191459 | 13 | 276 | 4.8 | 11.3 | 0.00 | 0.00 | 0.00 | 80 | 1008.7 |
| 20260505190956 | 13 | 343 | 8.0 | 12.9 | 0.00 | 0.00 | 0.00 | 80 | 1008.8 |
| 20260505190450 | 13 | 59 | 4.8 | 6.4 | 0.00 | 0.00 | 0.00 | 80 | 1008.9 |
| 20260505185946 | 13 | 29 | 8.0 | 12.9 | 0.00 | 0.00 | 0.00 | 80 | 1008.7 |
| 20260505185444 | 13 | 37 | 4.8 | 11.3 | 0.00 | 0.00 | 0.00 | 80 | 1008.9 |
| 20260505184940 | 13 | 14 | 4.8 | 12.9 | 0.00 | 0.00 | 0.00 | 79 | 1008.5 |
| 20260505184437 | 13 | 39 | 4.8 | 14.5 | 0.00 | 0.00 | 0.00 | 79 | 1008.5 |
| 20260505183933 | 13 | 32 | 3.2 | 20.9 | 0.00 | 0.00 | 0.00 | 79 | 1008.5 |
| 20260505183430 | 13 | 17 | 9.7 | 20.9 | 0.00 | 0.00 | 0.00 | 79 | 1008.7 |
| 20260505182927 | 13 | 52 | 9.7 | 17.7 | 0.00 | 0.00 | 0.00 | 80 | 1008.5 |
| 20260505182424 | 13 | 334 | 9.7 | 22.5 | 0.00 | 0.00 | 0.00 | 79 | 1008.3 |
| 20260505181920 | 13 | 46 | 1.6 | 14.5 | 0.00 | 0.00 | 0.00 | 79 | 1008.3 |
| 20260505181418 | 13 | 351 | 6.4 | 11.3 | 0.00 | 0.00 | 0.00 | 80 | 1008.2 |
| 20260505180914 | 13 | 314 | 8.0 | 14.5 | 0.00 | 0.00 | 0.00 | 80 | 1008.2 |
| 20260505180411 | 13 | 15 | 8.0 | 11.3 | 0.00 | 0.00 | 0.00 | 80 | 1008.3 |
| 20260505175908 | 13 | 37 | 4.8 | 20.9 | 0.00 | 0.00 | 0.00 | 80 | 1008.1 |
| 20260505175404 | 13 | 69 | 3.2 | 11.3 | 0.00 | 0.00 | 0.00 | 80 | 1008.0 |
| 20260505174900 | 13 | 316 | 4.8 | 12.9 | 0.00 | 0.00 | 0.00 | 81 | 1007.9 |
| 20260505174358 | 13 | 77 | 8.0 | 14.5 | 0.00 | 0.00 | 0.00 | 81 | 1007.7 |
| 20260505173854 | 13 | 107 | 9.7 | 12.9 | 0.00 | 0.00 | 0.00 | 81 | 1007.9 |
| 20260505173350 | 13 | 16 | 11.3 | 17.7 | 0.00 | 0.00 | 0.00 | 80 | 1008.0 |
| 20260505172847 | 13 | 346 | 3.2 | 11.3 | 0.00 | 0.00 | 0.00 | 82 | 1007.7 |
| 20260505172345 | 13 | 324 | 6.4 | 20.9 | 0.00 | 0.00 | 0.00 | 81 | 1007.6 |
| 20260505171844 | 13 | 55 | 6.4 | 17.7 | 0.00 | 0.00 | 0.00 | 81 | 1007.6 |
| 20260505171342 | 13 | 53 | 3.2 | 6.4 | 0.00 | 0.00 | 0.00 | 82 | 1007.7 |
| 20260505170838 | 13 | 10 | 9.7 | 17.7 | 0.00 | 0.00 | 0.00 | 82 | 1007.5 |
| 20260505170335 | 13 | 71 | 3.2 | 16.1 | 0.00 | 0.00 | 0.00 | 82 | 1007.1 |
| 20260505165830 | 13 | 19 | 6.4 | 22.5 | 0.00 | 0.00 | 0.00 | 81 | 1007.4 |
| 20260505165326 | 13 | 353 | 9.7 | 24.1 | 0.00 | 0.00 | 0.00 | 82 | 1006.9 |
| 20260505164822 | 14 | 59 | 4.8 | 20.9 | 0.00 | 0.00 | 0.00 | 81 | 1006.9 |
| 20260505164319 | 15 | 94 | 3.2 | 12.9 | 0.00 | 0.00 | 0.00 | 81 | 1006.8 |
| 20260505163817 | 15 | 56 | 1.6 | 11.3 | 0.00 | 0.00 | 0.00 | 82 | 1006.8 |
| 20260505163316 | 15 | 54 | 6.4 | 14.5 | 0.00 | 0.00 | 0.00 | 81 | 1006.5 |
| 20260505162814 | 15 | 26 | 8.0 | 25.7 | 0.00 | 0.00 | 0.00 | 80 | 1006.0 |
| 20260505162309 | 16 | 84 | 6.4 | 20.9 | 0.00 | 0.00 | 0.00 | 80 | 1005.7 |
| 20260505161807 | 16 | 354 | 0.0 | 20.9 | 0.00 | 0.00 | 0.00 | 80 | 1005.6 |
| 20260505161304 | 16 | 58 | 1.6 | 11.3 | 0.00 | 0.00 | 0.00 | 81 | 1005.4 |
| 20260505160801 | 16 | 87 | 6.4 | 12.9 | 0.00 | 0.00 | 0.00 | 81 | 1005.5 |
| 20260505160259 | 17 | 37 | 4.8 | 11.3 | 0.00 | 0.00 | 0.00 | 82 | 1005.3 |
| 20260505153238 | 20 | 28 | 4.8 | 9.7 | 0.00 | 0.00 | 0.00 | 81 | 1004.4 |
| 20260505152736 | 20 | 64 | 1.6 | 4.8 | 0.00 | 0.00 | 0.00 | 82 | 1004.3 |
| 20260505152232 | 20 | 72 | 3.2 | 9.7 | 0.00 | 0.00 | 0.00 | 82 | 1004.3 |
| 20260505151732 | 21 | 27 | 1.6 | 6.4 | 0.00 | 0.00 | 0.00 | 82 | 1004.1 |
| 20260505151229 | 21 | 44 | 0.0 | 1.6 | 0.00 | 0.00 | 0.00 | 82 | 1004.1 |
| 20260505150726 | 21 | 44 | 3.2 | 3.2 | 0.00 | 0.00 | 0.00 | 82 | 1004.3 |
| 20260505150224 | 21 | 16 | 0.0 | 4.8 | 0.00 | 0.00 | 0.00 | 82 | 1004.0 |
| 20260505140154 | 21 | 46 | 1.6 | 4.8 | 0.00 | 0.00 | 0.00 | 82 | 1003.2 |
| 20260505130118 | 18 | 47 | 1.6 | 3.2 | 0.00 | 0.00 | 0.00 | 88 | 1002.8 |
| 20260505124607 | 18 | 52 | 1.6 | 3.2 | 0.00 | 0.00 | 0.00 | 88 | 1002.7 |
| 20260505124103 | 18 | 32 | 0.0 | 1.6 | 0.00 | 0.00 | 0.00 | 89 | 1002.6 |
| 20260505123600 | 18 | 71 | 0.0 | 1.6 | 0.00 | 0.00 | 0.00 | 89 | 1002.6 |
| 20260505123056 | 18 | 48 | 1.6 | 3.2 | 0.00 | 0.00 | 0.00 | 89 | 1002.4 |
| 20260505122553 | 18 | 48 | 0.0 | 1.6 | 0.00 | 0.00 | 0.00 | 89 | 1002.5 |
| 20260505122050 | 18 | 42 | 3.2 | 6.4 | 0.00 | 0.00 | 0.00 | 88 | 1002.7 |
| 20260505121547 | 18 | 71 | 0.0 | 1.6 | 0.00 | 0.00 | 0.00 | 88 | 1002.3 |
| 20260505121044 | 18 | 46 | 0.0 | 3.2 | 0.00 | 0.00 | 0.00 | 88 | 1002.4 |
| 20260505120540 | 18 | 51 | 3.2 | 3.2 | 0.00 | 0.00 | 0.00 | 87 | 1002.3 |
| 20260505120035 | 18 | 70 | 3.2 | 3.2 | 0.00 | 0.00 | 0.00 | 87 | 1002.3 |
| 20260505115530 | 18 | 47 | 1.6 | 3.2 | 0.00 | 0.00 | 0.00 | 87 | 1002.2 |
| 20260505115028 | 19 | 53 | 0.0 | 0.0 | 0.00 | 0.00 | 0.00 | 86 | 1002.1 |
| 20260505114525 | 19 | 53 | 0.0 | 3.2 | 0.00 | 0.00 | 0.00 | 86 | 1001.7 |
| 20260505114021 | 19 | 63 | 0.0 | 1.6 | 0.00 | 0.00 | 0.00 | 85 | 1001.5 |
| 20260505113518 | 19 | 64 | 0.0 | 1.6 | 0.00 | 0.00 | 0.00 | 85 | 1001.6 |
| 20260505113014 | 19 | 64 | 1.6 | 1.6 | 0.00 | 0.00 | 0.00 | 85 | 1001.5 |
| 20260505112511 | 19 | 49 | 1.6 | 4.8 | 0.00 | 0.00 | 0.00 | 85 | 1001.4 |
| 20260505112009 | 19 | 34 | 0.0 | 0.0 | 0.00 | 0.00 | 0.00 | 84 | 1001.3 |
| 20260505111508 | 19 | 54 | 1.6 | 1.6 | 0.00 | 0.00 | 0.00 | 85 | 1001.4 |
| 20260505111004 | 19 | 72 | 0.0 | 0.0 | 0.00 | 0.00 | 0.00 | 86 | 1001.3 |
| 20260505110501 | 19 | 38 | 1.6 | 3.2 | 0.00 | 0.00 | 0.00 | 85 | 1001.2 |
| 20260505101933 | 20 | 58 | 3.2 | 3.2 | 0.00 | 0.00 | 0.00 | 80 | 1000.1 |
| 20260505101432 | 20 | 67 | 0.0 | 0.0 | 0.00 | 0.00 | 0.00 | 80 | 1000.4 |
| 20260505100928 | 20 | 246 | 0.0 | 0.0 | 0.00 | 0.00 | 0.00 | 80 | 1000.1 |
| 20260505100425 | 20 | 245 | 0.0 | 4.8 | 0.00 | 0.00 | 0.00 | 80 | 1000.1 |
| 20260505095921 | 21 | 254 | 1.6 | 3.2 | 0.00 | 0.00 | 0.00 | 79 | 1000.0 |
| 20260505095418 | 21 | 28 | 0.0 | 1.6 | 0.00 | 0.00 | 0.00 | 78 | 1000.0 |
| 20260505094914 | 21 | 271 | 0.0 | 1.6 | 0.00 | 0.00 | 0.00 | 78 | 1000.4 |
| 20260505094412 | 21 | 37 | 1.6 | 1.6 | 0.00 | 0.00 | 0.00 | 77 | 1000.0 |
| 20260505093907 | 21 | 39 | 1.6 | 1.6 | 0.00 | 0.00 | 0.00 | 76 | 999.8 |
| 20260505093404 | 21 | 44 | 0.0 | 0.0 | 0.00 | 0.00 | 0.00 | 76 | 1000.0 |
| 20260505092902 | 21 | 19 | 0.0 | 3.2 | 0.00 | 0.00 | 0.00 | 75 | 1000.0 |
| 20260505092400 | 22 | 358 | 0.0 | 0.0 | 0.00 | 0.00 | 0.00 | 75 | 999.8 |
| 20260505091857 | 22 | 67 | 1.6 | 4.8 | 0.00 | 0.00 | 0.00 | 75 | 1000.0 |
| 20260505091355 | 22 | 331 | 0.0 | 4.8 | 0.00 | 0.00 | 0.00 | 74 | 999.8 |
| 20260505090852 | 22 | 294 | 1.6 | 9.7 | 0.00 | 0.00 | 0.00 | 74 | 999.7 |
| 20260505090350 | 22 | 262 | 4.8 | 9.7 | 0.00 | 0.00 | 0.00 | 74 | 999.6 |
| 20260505085847 | 22 | 355 | 1.6 | 6.4 | 0.00 | 0.00 | 0.00 | 74 | 999.8 |
| 20260505085345 | 22 | 135 | 3.2 | 9.7 | 0.00 | 0.00 | 0.00 | 74 | 999.7 |
| 20260505084843 | 22 | 321 | 0.0 | 3.2 | 0.00 | 0.00 | 0.00 | 74 | 999.8 |
| 20260505084341 | 22 | 318 | 1.6 | 11.3 | 0.00 | 0.00 | 0.00 | 74 | 999.7 |
| 20260505083838 | 22 | 150 | 3.2 | 12.9 | 0.00 | 0.00 | 0.00 | 74 | 999.9 |
| 20260505083336 | 22 | 231 | 1.6 | 9.7 | 0.00 | 0.00 | 0.00 | 74 | 1000.1 |
| 20260505082832 | 22 | 41 | 1.6 | 12.9 | 0.00 | 0.00 | 0.00 | 74 | 1000.3 |
| 20260505082328 | 22 | 288 | 3.2 | 4.8 | 0.00 | 0.00 | 0.00 | 74 | 1000.0 |
| 20260505081825 | 22 | 273 | 0.0 | 12.9 | 0.00 | 0.00 | 0.00 | 74 | 1000.3 |
| 20260505081322 | 22 | 304 | 4.8 | 9.7 | 0.00 | 0.00 | 0.00 | 75 | 1000.3 |
| 20260505080818 | 22 | 242 | 4.8 | 6.4 | 0.00 | 0.00 | 0.00 | 74 | 1000.4 |
| 20260505080314 | 22 | 271 | 0.0 | 6.4 | 0.00 | 0.00 | 0.00 | 74 | 1000.3 |
| 20260505075810 | 22 | 252 | 3.2 | 9.7 | 0.00 | 0.00 | 0.00 | 74 | 1000.3 |
| 20260505075307 | 22 | 105 | 1.6 | 4.8 | 0.00 | 0.00 | 0.00 | 74 | 1000.4 |
| 20260505074804 | 22 | 81 | 3.2 | 4.8 | 0.00 | 0.00 | 0.00 | 74 | 1000.5 |
| 20260505074301 | 22 | 286 | 1.6 | 4.8 | 0.00 | 0.00 | 0.00 | 74 | 1000.6 |
| 20260505073759 | 22 | 44 | 0.0 | 4.8 | 0.00 | 0.00 | 0.00 | 74 | 1000.7 |
| 20260505073257 | 22 | 149 | 3.2 | 9.7 | 0.00 | 0.00 | 0.00 | 74 | 1000.7 |
| 20260505072753 | 22 | 69 | 1.6 | 6.4 | 0.00 | 0.00 | 0.00 | 74 | 1000.7 |
| 20260505072249 | 22 | 322 | 4.8 | 11.3 | 0.00 | 0.00 | 0.00 | 74 | 1000.8 |
| 20260505071745 | 22 | 202 | 1.6 | 11.3 | 0.00 | 0.00 | 0.00 | 74 | 1001.0 |
| 20260505071242 | 22 | 313 | 1.6 | 16.1 | 0.00 | 0.00 | 0.00 | 74 | 1001.1 |
| 20260505070740 | 22 | 218 | 1.6 | 6.4 | 0.00 | 0.00 | 0.00 | 74 | 1001.0 |
| 20260505070236 | 22 | 7 | 1.6 | 4.8 | 0.00 | 0.00 | 0.00 | 74 | 1001.1 |
| 20260505065731 | 22 | 32 | 1.6 | 9.7 | 0.00 | 0.00 | 0.00 | 73 | 1001.3 |
| 20260505065229 | 22 | 340 | 0.0 | 1.6 | 0.00 | 0.00 | 0.00 | 73 | 1001.3 |
| 20260505064725 | 22 | 30 | 6.4 | 14.5 | 0.00 | 0.00 | 0.00 | 73 | 1001.1 |
| 20260505064223 | 22 | 97 | 0.0 | 6.4 | 0.00 | 0.00 | 0.00 | 73 | 1001.2 |
| 20260505063720 | 22 | 48 | 4.8 | 6.4 | 0.00 | 0.00 | 0.00 | 73 | 1001.3 |
| 20260505063217 | 22 | 253 | 1.6 | 1.6 | 0.00 | 0.00 | 0.00 | 74 | 1001.5 |
| 20260505062713 | 22 | 64 | 1.6 | 6.4 | 0.00 | 0.00 | 0.00 | 74 | 1001.6 |
| 20260505062211 | 22 | 242 | 1.6 | 4.8 | 0.00 | 0.00 | 0.00 | 74 | 1001.6 |
| 20260505061708 | 22 | 39 | 1.6 | 6.4 | 0.00 | 0.00 | 0.00 | 74 | 1001.5 |
| 20260505061206 | 22 | 156 | 0.0 | 4.8 | 0.00 | 0.00 | 0.00 | 74 | 1001.7 |
| 20260505060703 | 22 | 249 | 0.0 | 6.4 | 0.00 | 0.00 | 0.00 | 74 | 1001.8 |
| 20260505060159 | 22 | 69 | 0.0 | 3.2 | 0.00 | 0.00 | 0.00 | 74 | 1001.8 |
| 20260505055655 | 22 | 108 | 1.6 | 6.4 | 0.00 | 0.00 | 0.00 | 73 | 1001.7 |
| 20260505055151 | 22 | 285 | 0.0 | 3.2 | 0.00 | 0.00 | 0.00 | 73 | 1001.7 |
| 20260505054649 | 22 | 285 | 3.2 | 6.4 | 0.00 | 0.00 | 0.00 | 73 | 1002.0 |
| 20260505054147 | 22 | 48 | 1.6 | 6.4 | 0.00 | 0.00 | 0.00 | 74 | 1001.8 |
| 20260505053644 | 22 | 60 | 0.0 | 1.6 | 0.00 | 0.00 | 0.00 | 73 | 1002.0 |
| 20260505053140 | 22 | 69 | 3.2 | 4.8 | 0.00 | 0.00 | 0.00 | 73 | 1001.9 |
| 20260505052638 | 22 | 80 | 3.2 | 4.8 | 0.00 | 0.00 | 0.00 | 73 | 1001.9 |
| 20260505052135 | 22 | 48 | 1.6 | 6.4 | 0.00 | 0.00 | 0.00 | 73 | 1002.2 |
| 20260505051632 | 22 | 43 | 1.6 | 4.8 | 0.00 | 0.00 | 0.00 | 73 | 1002.1 |
| 20260505051130 | 22 | 123 | 3.2 | 6.4 | 0.00 | 0.00 | 0.00 | 73 | 1002.1 |
| 20260505050627 | 22 | 332 | 1.6 | 6.4 | 0.00 | 0.00 | 0.00 | 72 | 1002.3 |
| 20260505050126 | 22 | 249 | 1.6 | 3.2 | 0.00 | 0.00 | 0.00 | 72 | 1002.6 |
| 20260505041555 | 22 | 108 | 1.6 | 11.3 | 0.00 | 0.00 | 0.00 | 70 | 1003.1 |
| 20260505041053 | 22 | 239 | 1.6 | 3.2 | 0.00 | 0.00 | 0.00 | 70 | 1002.8 |
| 20260505040550 | 22 | 65 | 0.0 | 4.8 | 0.00 | 0.00 | 0.00 | 70 | 1002.7 |
| 20260505040047 | 22 | 72 | 1.6 | 9.7 | 0.00 | 0.00 | 0.00 | 70 | 1002.6 |
| 20260505035543 | 22 | 44 | 0.0 | 3.2 | 0.00 | 0.00 | 0.00 | 70 | 1002.9 |
| 20260505035040 | 22 | 239 | 0.0 | 4.8 | 0.00 | 0.00 | 0.00 | 70 | 1002.7 |
| 20260505034536 | 22 | 104 | 0.0 | 1.6 | 0.00 | 0.00 | 0.00 | 70 | 1002.8 |
| 20260505034033 | 22 | 230 | 1.6 | 4.8 | 0.00 | 0.00 | 0.00 | 69 | 1003.0 |
| 20260505033530 | 23 | 173 | 1.6 | 6.4 | 0.00 | 0.00 | 0.00 | 69 | 1003.0 |
| 20260505033028 | 23 | 86 | 0.0 | 4.8 | 0.00 | 0.00 | 0.00 | 69 | 1002.8 |
| 20260505032526 | 23 | 62 | 0.0 | 4.8 | 0.00 | 0.00 | 0.00 | 69 | 1002.9 |
| 20260505032022 | 23 | 143 | 3.2 | 4.8 | 0.00 | 0.00 | 0.00 | 69 | 1002.8 |
| 20260505031520 | 23 | 91 | 1.6 | 3.2 | 0.00 | 0.00 | 0.00 | 69 | 1002.8 |
| 20260505031015 | 23 | 56 | 0.0 | 3.2 | 0.00 | 0.00 | 0.00 | 69 | 1002.7 |
| 20260505030513 | 23 | 151 | 1.6 | 3.2 | 0.00 | 0.00 | 0.00 | 68 | 1002.8 |
| 20260505030009 | 23 | 259 | 0.0 | 3.2 | 0.00 | 0.00 | 0.00 | 68 | 1002.8 |
| 20260505025505 | 23 | 1 | 1.6 | 1.6 | 0.00 | 0.00 | 0.00 | 68 | 1002.7 |
| 20260505025004 | 23 | 241 | 1.6 | 4.8 | 0.00 | 0.00 | 0.00 | 68 | 1002.7 |
| 20260505024500 | 23 | 222 | 1.6 | 3.2 | 0.00 | 0.00 | 0.00 | 67 | 1002.4 |
| 20260505023957 | 23 | 233 | 1.6 | 4.8 | 0.00 | 0.00 | 0.00 | 67 | 1002.5 |
| 20260505023454 | 23 | 223 | 1.6 | 9.7 | 0.00 | 0.00 | 0.00 | 67 | 1002.3 |
| 20260505022952 | 23 | 128 | 3.2 | 4.8 | 0.00 | 0.00 | 0.00 | 67 | 1002.2 |
| 20260505022449 | 23 | 253 | 3.2 | 4.8 | 0.00 | 0.00 | 0.00 | 67 | 1002.4 |
| 20260505021946 | 23 | 141 | 1.6 | 3.2 | 0.00 | 0.00 | 0.00 | 67 | 1002.4 |
| 20260505021443 | 23 | 100 | 0.0 | 3.2 | 0.00 | 0.00 | 0.00 | 66 | 1002.4 |
| 20260505020938 | 23 | 208 | 0.0 | 1.6 | 0.00 | 0.00 | 0.00 | 66 | 1002.4 |
| 20260505020434 | 23 | 232 | 0.0 | 1.6 | 0.00 | 0.00 | 0.00 | 66 | 1002.4 |
| 20260505015931 | 23 | 217 | 0.0 | 3.2 | 0.00 | 0.00 | 0.00 | 65 | 1002.4 |
| 20260505015428 | 23 | 143 | 1.6 | 1.6 | 0.00 | 0.00 | 0.00 | 65 | 1002.3 |
| 20260505014925 | 24 | 139 | 0.0 | 1.6 | 0.00 | 0.00 | 0.00 | 65 | 1002.4 |
| 20260505014422 | 24 | 249 | 0.0 | 1.6 | 0.00 | 0.00 | 0.00 | 65 | 1002.4 |
| 20260505013919 | 24 | 77 | 1.6 | 4.8 | 0.00 | 0.00 | 0.00 | 64 | 1002.3 |
| 20260505013416 | 24 | 64 | 0.0 | 3.2 | 0.00 | 0.00 | 0.00 | 64 | 1002.7 |
| 20260505012914 | 24 | 226 | 0.0 | 0.0 | 0.00 | 0.00 | 0.00 | 64 | 1002.6 |
| 20260505012412 | 24 | 218 | 0.0 | 1.6 | 0.00 | 0.00 | 0.00 | 63 | 1002.7 |
| 20260505011908 | 24 | 212 | 1.6 | 1.6 | 0.00 | 0.00 | 0.00 | 63 | 1002.6 |
| 20260505011404 | 25 | 58 | 0.0 | 1.6 | 0.00 | 0.00 | 0.00 | 62 | 1002.5 |
| 20260505010901 | 25 | 194 | 0.0 | 1.6 | 0.00 | 0.00 | 0.00 | 62 | 1002.6 |
| 20260505010357 | 25 | 73 | 1.6 | 1.6 | 0.00 | 0.00 | 0.00 | 62 | 1002.7 |
| 20260505005853 | 25 | 227 | 1.6 | 1.6 | 0.00 | 0.00 | 0.00 | 61 | 1002.6 |
| 20260505005350 | 25 | 278 | 0.0 | 0.0 | 0.00 | 0.00 | 0.00 | 61 | 1002.5 |
| 20260505004848 | 25 | 180 | 0.0 | 1.6 | 0.00 | 0.00 | 0.00 | 60 | 1002.7 |
| 20260505004343 | 25 | 180 | 0.0 | 1.6 | 0.00 | 0.00 | 0.00 | 60 | 1002.6 |
| 20260505003841 | 25 | 150 | 1.6 | 3.2 | 0.00 | 0.00 | 0.00 | 60 | 1002.7 |
| 20260505003338 | 26 | 258 | 1.6 | 4.8 | 0.00 | 0.00 | 0.00 | 59 | 1002.8 |
| 20260505002834 | 26 | 194 | 1.6 | 3.2 | 0.00 | 0.00 | 0.00 | 59 | 1002.8 |
| 20260505002331 | 26 | 202 | 3.2 | 4.8 | 0.00 | 0.00 | 0.00 | 58 | 1002.8 |
| 20260505001830 | 26 | 254 | 0.0 | 9.7 | 0.00 | 0.00 | 0.00 | 58 | 1002.7 |
| 20260505001326 | 26 | 206 | 1.6 | 3.2 | 0.00 | 0.00 | 0.00 | 58 | 1002.8 |
| 20260505000823 | 27 | 224 | 0.0 | 3.2 | 0.00 | 0.00 | 0.00 | 57 | 1002.7 |
| 20260505000321 | 26 | 108 | 0.0 | 1.6 | 0.00 | 0.00 | 0.00 | 58 | 1002.8 |
| 20260504235818 | 26 | 71 | 1.6 | 3.2 | 0.00 | 0.00 | 0.00 | 57 | 1002.9 |
| 20260504235314 | 27 | 233 | 1.6 | 1.6 | 0.00 | 0.00 | 0.00 | 57 | 1002.9 |
| 20260504234811 | 27 | 158 | 0.0 | 3.2 | 0.00 | 0.00 | 0.00 | 57 | 1003.0 |
| 20260504234309 | 26 | 155 | 0.0 | 1.6 | 0.00 | 0.00 | 0.00 | 57 | 1003.1 |
| 20260504233805 | 26 | 210 | 0.0 | 3.2 | 0.00 | 0.00 | 0.00 | 57 | 1002.9 |
| 20260504233301 | 26 | 273 | 3.2 | 4.8 | 0.00 | 0.00 | 0.00 | 56 | 1003.1 |
| 20260504232758 | 26 | 278 | 1.6 | 3.2 | 0.00 | 0.00 | 0.00 | 56 | 1003.6 |
| 20260504232255 | 26 | 269 | 0.0 | 3.2 | 0.00 | 0.00 | 0.00 | 56 | 1003.4 |
| 20260504231752 | 26 | 244 | 0.0 | 4.8 | 0.00 | 0.00 | 0.00 | 57 | 1003.4 |
| 20260504231248 | 26 | 177 | 0.0 | 4.8 | 0.00 | 0.00 | 0.00 | 56 | 1003.5 |
| 20260504230744 | 26 | 233 | 1.6 | 4.8 | 0.00 | 0.00 | 0.00 | 57 | 1003.8 |
| 20260504230243 | 27 | 222 | 1.6 | 3.2 | 0.00 | 0.00 | 0.00 | 57 | 1003.8 |
| 20260504225741 | 27 | 258 | 0.0 | 3.2 | 0.00 | 0.00 | 0.00 | 56 | 1003.8 |
| 20260504225237 | 27 | 220 | 0.0 | 4.8 | 0.00 | 0.00 | 0.00 | 55 | 1003.8 |
| 20260504224734 | 27 | 222 | 1.6 | 3.2 | 0.00 | 0.00 | 0.00 | 54 | 1004.0 |
| 20260504224231 | 27 | 33 | 1.6 | 4.8 | 0.00 | 0.00 | 0.00 | 54 | 1004.2 |
| 20260504223728 | 27 | 129 | 0.0 | 4.8 | 0.00 | 0.00 | 0.00 | 54 | 1004.2 |
| 20260504223223 | 27 | 345 | 1.6 | 6.4 | 0.00 | 0.00 | 0.00 | 54 | 1004.0 |
| 20260504222721 | 27 | 73 | 1.6 | 4.8 | 0.00 | 0.00 | 0.00 | 53 | 1004.3 |
| 20260504222217 | 27 | 236 | 1.6 | 3.2 | 0.00 | 0.00 | 0.00 | 54 | 1004.0 |
| 20260504221715 | 27 | 37 | 1.6 | 3.2 | 0.00 | 0.00 | 0.00 | 53 | 1004.1 |
| 20260504221212 | 27 | 242 | 3.2 | 4.8 | 0.00 | 0.00 | 0.00 | 53 | 1004.1 |
| 20260504220708 | 27 | 115 | 1.6 | 6.4 | 0.00 | 0.00 | 0.00 | 54 | 1004.1 |
| 20260504220206 | 27 | 271 | 1.6 | 11.3 | 0.00 | 0.00 | 0.00 | 53 | 1004.0 |
| 20260504215702 | 27 | 167 | 1.6 | 9.7 | 0.00 | 0.00 | 0.00 | 53 | 1003.9 |
| 20260504215159 | 27 | 327 | 1.6 | 4.8 | 0.00 | 0.00 | 0.00 | 53 | 1004.1 |
| 20260504214655 | 27 | 42 | 1.6 | 4.8 | 0.00 | 0.00 | 0.00 | 53 | 1004.0 |
| 20260504214152 | 27 | 52 | 0.0 | 6.4 | 0.00 | 0.00 | 0.00 | 52 | 1004.2 |
| 20260504213648 | 27 | 135 | 1.6 | 4.8 | 0.00 | 0.00 | 0.00 | 52 | 1004.3 |
| 20260504213145 | 27 | 234 | 8.0 | 14.5 | 0.00 | 0.00 | 0.00 | 52 | 1004.3 |
| 20260504212642 | 27 | 31 | 1.6 | 6.4 | 0.00 | 0.00 | 0.00 | 52 | 1004.4 |
| 20260504212138 | 27 | 178 | 3.2 | 9.7 | 0.00 | 0.00 | 0.00 | 52 | 1004.4 |
| 20260504211636 | 27 | 8 | 4.8 | 6.4 | 0.00 | 0.00 | 0.00 | 52 | 1004.5 |
| 20260504211132 | 27 | 227 | 6.4 | 9.7 | 0.00 | 0.00 | 0.00 | 51 | 1004.6 |
| 20260504210630 | 28 | 79 | 1.6 | 6.4 | 0.00 | 0.00 | 0.00 | 50 | 1004.6 |
| 20260504210126 | 28 | 226 | 3.2 | 6.4 | 0.00 | 0.00 | 0.00 | 49 | 1004.7 |
| 20260504205624 | 28 | 87 | 0.0 | 9.7 | 0.00 | 0.00 | 0.00 | 49 | 1004.7 |
| 20260504205121 | 28 | 5 | 1.6 | 3.2 | 0.00 | 0.00 | 0.00 | 50 | 1004.6 |
| 20260504204620 | 28 | 32 | 1.6 | 9.7 | 0.00 | 0.00 | 0.00 | 47 | 1005.0 |
| 20260504204118 | 28 | 51 | 1.6 | 6.4 | 0.00 | 0.00 | 0.00 | 47 | 1004.7 |
| 20260504203616 | 29 | 252 | 0.0 | 12.9 | 0.00 | 0.00 | 0.00 | 48 | 1004.8 |
| 20260504203113 | 28 | 65 | 1.6 | 6.4 | 0.00 | 0.00 | 0.00 | 47 | 1005.0 |
| 20260504202608 | 28 | 249 | 4.8 | 9.7 | 0.00 | 0.00 | 0.00 | 47 | 1004.9 |
| 20260504202106 | 29 | 38 | 0.0 | 6.4 | 0.00 | 0.00 | 0.00 | 47 | 1004.9 |